User: anonymous   Login
Location: Mascot Post Office (historical)
(40.2645°N, 99.5462°W)
Time: 14:03:39
(UTC+00:00)
Language:

Cosmos 1697 Rocket - Orbit

View from above orbital plane
View from above orbital plane
View from above satellite
View from above satellite

Ground track
Ground track

The orbit data is extracted from the following two-line orbital elements,

1 16182U 85097B   20274.48368279 -.00000192 +00000-0 -72885-4 0  9997
2 16182 071.0036 000.5110 0006241 027.3687 052.9628 14.16255741806024
Epoch (UTC): 30 September 2020 11:36:30
Eccentricity: 0.0006241
inclination: 71.0036°
perigee height: 833 km
apogee height: 842 km
right ascension of ascending node: 0.5110°
argument of perigee: 27.3687°
revolutions per day: 14.16255741
mean anomaly at epoch: 52.9628°
orbit number at epoch: 80602

The dashed part of the orbit path shows where the satellite is in the earth's shadow,  

DLR